Flag for U.S.A. Weather past 2 weeks in Chico, California, U.S.A.

34 °F

Partly cloudy.

Feels Like: 28 °F
Forecast: 34 / 50 °F
Wind: 7 mph from Northwest

Location: Chico Municipal

Current Time: Nov 25, 2015 at 7:25:22 AM

Latest Report: Nov 25, 2015 at 6:55 AM

Visibility: 40 mi

Pressure: 29.92 "Hg

Humidity: 93%

Dew point: 32 °F

Location of ChicoLocation

Historic Weather in Chico — Graph


Chico temperature yesterday

Maximum temperature yesterday: 55 °F (at 11:47 AM)
Minimum temperature yesterday: 39 °F (at 11:15 PM)
Average temperature yesterday: 49 °F

Past Weeks' High & Low Weather Summary

High73 °F (Nov 20, 1:58 PM)100% (Nov 10, 6:50 AM)30.45 "Hg (Nov 10, 6:50 AM)
Low25 °F (Nov 16, 7:55 AM)29% (Nov 16, 2:47 PM)29.68 "Hg (Nov 15, 6:53 AM)
Average52 °F68%30.04 "Hg
* Reported Nov 10 6:50 AM — Nov 25 5:35 AM, Chico, Weather by CustomWeather, © 2015

Note: Actual official high and low records may vary slightly from our data, if they occured in-between our weather recording intervals... More about our weather records


Chico weather history for previous 24 hours

Time TempWeatherWind HumidityBarometerVisibility
5:35 AM
Wed, Nov 25
34 °FMostly cloudy.No wind93%29.91 "Hg10 mi
5:15 AM37 °FOvercast.No wind81%29.91 "Hg10 mi
4:55 AM37 °FOvercast.No wind81%29.91 "Hg10 mi
4:35 AM36 °FOvercast.No wind87%29.91 "Hg10 mi
4:15 AM37 °FPassing clouds.No wind81%29.91 "Hg10 mi
3:55 AM36 °FPassing clouds.No wind87%29.92 "Hg10 mi
3:35 AM36 °FPassing clouds.No wind87%29.92 "Hg10 mi
3:15 AM36 °FClear.No wind87%29.92 "Hg10 mi
2:55 AM32 °FClear.No wind100%29.92 "Hg10 mi
2:35 AM37 °FClear.No wind81%29.91 "Hg10 mi
2:15 AM36 °FClear.No wind87%29.91 "Hg10 mi
1:55 AM36 °FClear.No wind87%29.91 "Hg10 mi
1:35 AM36 °FClear.No wind87%29.90 "Hg10 mi
1:15 AM37 °FClear.No wind81%29.90 "Hg10 mi
12:55 AM37 °FPassing clouds.No wind81%29.90 "Hg10 mi
12:35 AM39 °FPassing clouds.No wind75%29.90 "Hg10 mi
12:15 AM37 °FPassing clouds.No wind81%29.90 "Hg10 mi
11:55 PM
Tue, Nov 24
39 °FPassing clouds.No wind75%29.90 "Hg10 mi
11:15 PM39 °FOvercast.No wind81%29.90 "Hg10 mi
10:55 PM41 °FOvercast.No wind76%29.89 "Hg10 mi
10:15 PM41 °FPassing clouds.No wind76%29.88 "Hg10 mi
9:55 PM41 °FPassing clouds.No wind76%29.88 "Hg10 mi
9:15 PM46 °FClear.No wind50%29.86 "Hg10 mi
8:55 PM45 °FPassing clouds.No wind61%29.86 "Hg10 mi
7:55 PM45 °FPassing clouds.7 mph61%29.85 "Hg10 mi
7:35 PM45 °FClear.6 mph61%29.85 "Hg10 mi
7:15 PM46 °FClear.No wind57%29.84 "Hg10 mi
6:55 PM46 °FPassing clouds.No wind62%29.84 "Hg10 mi
6:35 PM46 °FPassing clouds.No wind57%29.83 "Hg10 mi
6:15 PM48 °FOvercast.No wind58%29.83 "Hg10 mi
5:55 PM50 °FOvercast.No wind50%29.83 "Hg10 mi
4:47 PM52 °FPartly cloudy.7 mph47%29.81 "Hg40 mi
2:47 PM55 °FBroken clouds.6 mph41%29.78 "Hg40 mi
1:47 PM48 °FBroken clouds.6 mph71%29.77 "Hg10 mi
12:55 PM45 °FPartly sunny.12 mph76%29.76 "Hg10 mi
12:00 PM52 °FThunderstorms. Broken clouds.14 mph54%29.76 "Hg10 mi
11:47 AM55 °FScattered showers. Broken clouds.14 mph72%29.75 "Hg10 mi
10:50 AM54 °FCloudy.21 mph82%29.77 "Hg10 mi
9:48 AM52 °FMostly cloudy.21 mph88%29.76 "Hg10 mi
8:50 AM50 °FLight rain. Overcast.23 mph94%29.77 "Hg10 mi
7:45 AM52 °FOvercast.26 mph82%29.77 "Hg20 mi
Weather by CustomWeather, © 2015

See weather overviewHow to use our weather pages